User: anonymous   Login
Location: Carrières
(48.9495°N, 2.0407°E)
Time: 15:21:30
(UTC+00:00)
Language:

deb Agena D - Orbit

View from above orbital plane
View from above orbital plane
View from above satellite
View from above satellite

Ground track
Ground track

The orbit data is extracted from the following two-line orbital elements,

1  4652U 70025AL  24194.12149209  .00001168  00000-0  10157-2 0  9991
2  4652  99.5514 317.0834 0029979 301.2277 234.4690 13.88048131719716
Epoch (UTC): 12 July 2024 02:54:56
Eccentricity: 0.0029979
inclination: 99.5514°
perigee height: 913 km
apogee height: 957 km
right ascension of ascending node: 317.0834°
argument of perigee: 301.2277°
revolutions per day: 13.88048131
mean anomaly at epoch: 234.4690°
orbit number at epoch: 71971

The dashed part of the orbit path shows where the satellite is in the earth's shadow,  

DLR